Regional Weather Roundup
Issued by NWS

Home | Current Version | Previous Version | Graphics & Text | Print | Product List | Glossary On
Versions: 1 2 3 4 5 6 7 8 9 10 11 12 13 14 15 16 17 18 19 20 21 22 23 24 25 26 27 28 29 30 31 32 33 34 35 36 37 38 39 40 41 42 43 44 45 46 47 48 49 50
000
ASUS43 KDTX 271401
RWRMI
MICHIGAN HOURLY REGIONAL WEATHER ROUNDUP
NATIONAL WEATHER SERVICE DETROIT/PONTIAC MI
1000 AM EDT TUE JUN 27 2017

NOTE: "FAIR" INDICATES FEW OR NO CLOUDS BELOW 12,000 FEET WITH NO
SIGNIFICANT WEATHER AND/OR OBSTRUCTION TO VISIBILITY.

MIZ047>049-052>055-059>063-066>070-074>076-081>083-271500-
SOUTHEAST LOWER MICHIGAN

CITY           SKY/WX    TMP DP  RH WIND       PRES   REMARKS
ADRIAN         SUNNY     63  41  44 VRB5      30.12R
ALMA           SUNNY     63  49  61 W12G23    30.09R
ANN ARBOR      SUNNY     62  48  60 W12       30.09R
BAD AXE        MOSUNNY   60  49  69 NW9G18    30.04R
CARO           SUNNY     62  49  63 NW12      30.05R
DETROIT CITY   SUNNY     62  47  57 W13       30.06S
DETROIT        MOSUNNY   63  48  58 NW14      30.08R
FLINT          SUNNY     62  49  62 NW12      30.07S
GROSSE ILE     SUNNY     62  46  56 NW13      30.07R
HILLSDALE      SUNNY     61  45  55 W9        30.12R
HOWELL         SUNNY     61  47  59 W7        30.09R

CITY           SKY/WX    TMP DP  RH WIND       PRES   REMARKS
JACKSON        SUNNY     62  46  55 W12       30.11R
LAMBERTVILLE   SUNNY     62  44  52 NW6       30.10S
LANSING        SUNNY     64  47  53 W10       30.10R
LAPEER         FAIR      61  48  61 NW9       30.06R
MASON          SUNNY     62  48  61 NW7       30.10R
MONROE         SUNNY     62  47  56 NW8       30.09R
MT. CLEMENS    MOSUNNY   63  49  61 W17       30.03R
PONTIAC        MOSUNNY   60  47  61 NW15      30.06R
PORT HOPE        N/A     59  50  72 NW12      30.00R
PORT HURON     MOSUNNY   59  48  67 NW12G21   30.04R
TRI CITIES     SUNNY     62  52  69 W13       30.07R
MIDLAND        FAIR      63  49  59 W9        30.05S
TROY           SUNNY     62  46  55 NW12G23   30.08R
SAGINAW HB     SUNNY     63  46  55 W13       30.06R
$$
MIZ043>046-050>051-056>058-064>065-071>073-077>080-271500-
SOUTHWEST LOWER MICHIGAN

CITY           SKY/WX    TMP DP  RH WIND       PRES   REMARKS
BATTLE CREEK   SUNNY     62  48  60 W10       30.13R
BENTON HARBOR  SUNNY     66  47  50 W10       30.13R
BIG RAPIDS     SUNNY     61  50  67 W9        30.07R
COLDWATER      SUNNY     62  47  57 W8        30.13R
FREMONT        FAIR      63  52  68 W3        30.08S
HOLLAND        SUNNY     65  50  58 W16       30.12R
GRAND RAPIDS   MOSUNNY   64  50  60 W12       30.10R
IONIA          FAIR      63  49  61 W12       30.09S
KALAMAZOO      SUNNY     64  46  52 W10       30.13R
LUDINGTON      SUNNY     61  54  78 SW7       30.07R
MARSHALL       SUNNY     64  48  56 W8        30.11S
MOUNT PLEASANT SUNNY     62  49  63 W8        30.06S
MUSKEGON       MOSUNNY   65  52  62 W12       30.10R
SOUTH HAVEN    SUNNY     65  51  61 W9        30.12S
$$
MIZ016>042-271500-
NORTHERN LOWER MICHIGAN

CITY           SKY/WX    TMP DP  RH WIND       PRES   REMARKS
ALPENA         SUNNY     62  51  67 NW10      30.00S
BEAVER ISLAND  PTSUNNY   60  51  72 NW6       30.02S
BELLAIRE       SUNNY     62  53  72 W3        30.02S
CADILLAC       SUNNY     60  54  79 W6        30.05R
CHARLEVOIX     SUNNY     61  53  73 W7        30.05S
FRANKFORT      SUNNY     61  54  78 W10       30.05R
GAYLORD        MOSUNNY   59  48  67 W8        30.02S
GRAYLING       PTSUNNY   58  54  85 W6        30.04S
HARBOR SPRINGS SUNNY     60  54  80 SW5       30.01S
HOUGHTON LAKE  SUNNY     61  51  70 W7        30.05R
MANISTEE       SUNNY     60  54  80 W6        30.06R
OSCODA         SUNNY     64  48  56 NW18      30.00S
PELLSTON       SUNNY     61  49  64 W6        30.01S
ROGERS CITY    SUNNY     61  50  67 W10       30.01S
TRAVERSE CITY  MOSUNNY   62  54  74 W6        30.02R
$$
MIZ007>008-015-271500-
EASTERN UPPER MICHIGAN

CITY           SKY/WX    TMP DP  RH WIND       PRES   REMARKS
KINROSS        SUNNY     56  50  80 W8        30.00R
MACKINAC ISLAN SUNNY     58  52  80 W8        30.00S
NEWBERRY       PTSUNNY   58  53  83 W5        30.00S
S. S. MARIE    SUNNY     58  50  75 W7        29.98R
MUNISING         N/A     58  49  72 N8        30.00S
$$
MIZ004>006-011>014-085-271500-
CENTRAL UPPER MICHIGAN

CITY           SKY/WX    TMP DP  RH WIND       PRES   REMARKS
MANISTIQUE     SUNNY     60  49  67 N6        30.01S
ESCANABA       SUNNY     63  51  65 NW7       30.02S
MENOMINEE      MOSUNNY   61  51  70 VRB6      30.06R
SAWYER-GWINN   SUNNY     59  48  67 NW9       30.02S
$$
MIZ001>003-009>011-084-271500-
WESTERN UPPER MICHIGAN

CITY           SKY/WX    TMP DP  RH WIND       PRES   REMARKS
IRON MOUNTAIN  SUNNY     61  49  64 VRB3      30.02F
HOUGHTON       CLOUDY    59  49  69 W8        30.00S
COPPER HARBOR    N/A     59  52  77 N6        29.98S
IRONWOOD       SUNNY     61  49  64 W6        30.05S
$$

ABBREVIATIONS USED IN REMARKS
   TC - TEMPERATURE IN CELSIUS
  WCI - WIND CHILL INDEX
   HX - HEAT INDEX
  VSB - VISIBILITY





USA.gov is the U.S. government's official web portal to all federal, state and local government web resources and services.